World > North America > United States > South Dakota > Black Hawk  

Black Hawk, SD Hourly Weather Forecast

Feedback E-mail the Weather

Quick Clicks

Weather World

24 Hour Forecast

Current Conditions - Clear. Temperature is 40°F4°C, dew point 10°F-12°C, humidity 28%. Wind direction is N at 16 mph26 km/h with visibility of 10 mi16 km. Barometric pressure is 30.15 in1020 mb.
Tonight - Clear, breezy with lows in the mid 20s. Northwest winds 15 to 25 mph with gusts up to 40 mph, diminishing to 10 to 15 mph with gus.. Full Forecast
Friday - Mostly sunny and windy. Highs in the lower 40s. Northwest winds 15 to 25 mph, increasing to 25 to 35 mph in the afternoon. Gusts u.. Full Forecast

Black Hawk Hourly Weather

24 Hour Weather Scroll
Thu, Apr 18
8:00 pm
Thu, Apr 18
9:00 pm
Thu, Apr 18
10:00 pm
Thu, Apr 18
11:00 pm
Fri, Apr 19
Midnight
Fri, Apr 19
1:00 am
Fri, Apr 19
2:00 am
Fri, Apr 19
3:00 am
Fri, Apr 19
4:00 am
Fri, Apr 19
5:00 am
Fri, Apr 19
6:00 am
Fri, Apr 19
7:00 am
Fri, Apr 19
8:00 am
Fri, Apr 19
9:00 am
Fri, Apr 19
10:00 am
Fri, Apr 19
11:00 am
Fri, Apr 19
Noon
Fri, Apr 19
1:00 pm
Fri, Apr 19
2:00 pm
Fri, Apr 19
3:00 pm
Fri, Apr 19
4:00 pm
Fri, Apr 19
5:00 pm
Fri, Apr 19
6:00 pm
Fri, Apr 19
7:00 pm
ClearClear Clear Clear Clear Clear Clear Clear Clear Clear Clear SunnySunnySunnySunnySunnySunnyPartly Cloudy Partly Cloudy Partly Cloudy Partly Cloudy Partly Cloudy Partly Cloudy Partly Cloudy
Clear Clear Clear Clear Clear Clear Clear Clear Clear Clear Clear Sunny Sunny Sunny Sunny Sunny Sunny Partly Cloudy Partly Cloudy Partly Cloudy Partly Cloudy Partly Cloudy Partly Cloudy Partly Cloudy
39°F4°C 34°F1°C 32°F0°C 31°F-0°C 31°F-1°C 30°F-1°C 29°F-1°C 29°F-2°C 28°F-2°C 28°F-2°C 27°F-3°C 28°F-2°C 29°F-2°C 31°F-1°C 33°F0°C 35°F2°C 37°F3°C 39°F4°C 40°F4°C 41°F5°C 41°F5°C 40°F4°C 39°F4°C 37°F3°C
14°F
-10°C
13°F
-10°C
13°F
-10°C
13°F
-11°C
13°F
-11°C
12°F
-11°C
13°F
-11°C
13°F
-11°C
11°F
-12°C
9°F
-13°C
8°F
-14°C
6°F
-15°C
5°F
-15°C
5°F
-15°C
7°F
-14°C
10°F
-12°C
12°F
-11°C
12°F
-11°C
13°F
-11°C
13°F
-10°C
14°F
-10°C
14°F
-10°C
15°F
-10°C
15°F
-9°C
30.18 in
1022 mb
30.27 in
1025 mb
30.33 in
1027 mb
30.33 in
1027 mb
30.33 in
1027 mb
30.33 in
1027 mb
30.36 in
1028 mb
30.36 in
1028 mb
30.36 in
1028 mb
30.36 in
1028 mb
30.39 in
1029 mb
30.39 in
1029 mb
30.42 in
1030 mb
30.42 in
1030 mb
30.42 in
1030 mb
30.39 in
1029 mb
30.36 in
1028 mb
30.36 in
1028 mb
30.33 in
1027 mb
30.3 in
1026 mb
30.3 in
1026 mb
30.3 in
1026 mb
30.33 in
1027 mb
30.36 in
1028 mb
37%42%47%48%47%45%49%51%48%44%41%40%37%33%34%35%35%33%32%31%32%33%36%40%
NNWNWWNWWWWNWNWNWWNWWNWNWNWNWNWNWNWNWNWNNWNNWNNWNNWNNWNNW
16 mph
26 km/h
11 mph
18 km/h
8 mph
13 km/h
7 mph
12 km/h
8 mph
13 km/h
10 mph
16 km/h
10 mph
17 km/h
10 mph
15 km/h
10 mph
15 km/h
12 mph
19 km/h
15 mph
25 km/h
16 mph
26 km/h
17 mph
27 km/h
19 mph
31 km/h
21 mph
34 km/h
20 mph
32 km/h
19 mph
31 km/h
19 mph
31 km/h
20 mph
32 km/h
21 mph
33 km/h
21 mph
34 km/h
21 mph
34 km/h
21 mph
33 km/h
19 mph
30 km/h
0%0%0%0%0%0%0%0%0%0%0%0%0%0%0%0%0%0%0%0%0%0%0%0%
10 mi
16 km
6 mi
10 km
6 mi
10 km
6 mi
10 km
6 mi
10 km
6 mi
10 km
6 mi
10 km
6 mi
10 km
6 mi
10 km
6 mi
10 km
6 mi
10 km
6 mi
10 km
6 mi
10 km
6 mi
10 km
6 mi
10 km
6 mi
10 km
6 mi
10 km
6 mi
10 km
6 mi
10 km
6 mi
10 km
6 mi
10 km
6 mi
10 km
6 mi
10 km
6 mi
10 km

Day/Time
Weather
Condition
Temperature
Dew Point
Pressure
Humidity
Wind Direction
Wind Speed
Prob Precip %
Visibility
POP = Probability of Precipitation. ** Indicates missing data/values from KRCA model statistics.

Trending Headlines

Trending Entertainment Headlines

Black Hawk Radar Loop

Use the map search tool if you want to place a location marker on the radar map...

48 Hour API Forecast

Prob Precip % = Probability of Precipitation.

Black Hawk 36 Hour Forecast

POP = Probability of Precipitation. ** Indicates missing data/values from model statistics.

E-mail the Black Hawk Weather Forecast

Voice your opinion or tell us about page issues...

Black Hawk SD Weather - 10:33 pm

What are people saying?

Contact Us